Погода в Усть-Кишерти

Россия / Пермский край     57°21′58″N   57°14′53″E
темп.,
°C
ветер,
м/с
пор.,
м/с
влажн.,
%
обл.,
%
осадки,
мм/ч
давл.,
гПа
погр.,
м
22 апреля, чт
чт2223:00+7ююв31058100 0.0 1030195
02:00+5ююв376187 0.0 1029101
05:00+5ююв41163100 0.0 1030204
08:00+7ю61258100 0.0 1030754
11:00+7ю81364100 0.0 1030906
14:00+7ююз81175100 0.1 10301243
17:00+6ююз51088100 0.2 1030900
20:00+6ю5983100 0.3 10301001
23 апреля, пт
пт2323:00+6ю4891100 1.2 1030889
02:00+2ю61197100 2.8 1030544
05:00+2ю4999100 5.7 1030370
08:00+2ю4899100 0.9 1030344
11:00+2ю3699100 1.1 1030372
14:00+3ю2598100 0.1 1031341
17:00+6ююв3481100 0.1 1030674
20:00+5юв2386100 0.0 102984
24 апреля, сб
сб2423:00+4в2290100 0.0 102845
02:00+2всв3493100 0.0 102767
05:00+2в3695100 0.0 1025128
08:00+4в3794100 0.0 1023217
11:00+5в3997100 0.7 1021326
14:00+6вюв4896100 1.1 1019435
17:00+6вюв4894100 2.1 1018421
20:00+6вюв51189100 0.1 1017535
25 апреля, вс
вс2523:00+5вюв61190100 0.1 1016427
02:00+5вюв51183100 0.0 1015371
05:00+3вюв4118974 0.0 1014325
08:00+4юв5986100 0.0 1013558
11:00+4юв5895100 0.0 1012662
14:00+7ююв71081100 0.0 1010849
17:00+6ююз71285100 4.1 1011825
20:00+6зюз713745 0.1 1012870
26 апреля, пн
пн2623:00+3ююз5138711 0.1 1014291
02:00+3ююз512873 0.0 1014259
05:00+2ююз5119093 0.0 1015239
08:00+4ююз5108546 0.0 1015424
11:00+4юз61195100 1.3 1016641
14:00+9зюз81149100 0.5 10152173
17:00+10зюз7114452 0.5 10152545
20:00+7юз5105753 0.0 1015314